This is the latest recevied weather packets stored in our database for station/object DB0OHL. If no packets are shown the sender has not sent any weather packets the latest 10 day(s).
| Time | Temp. | Humidity | Pressure | Rain* | Wind** | Luminosity | Snow |
|---|---|---|---|---|---|---|---|
| 1778069742 | 7.22° C | 99% | 1007.7 hPa | 1.27 mm | - | - | - |
| 1778069139 | 7.22° C | 99% | 1007.5 hPa | 1.02 mm | - | - | - |
| 1778068537 | 7.22° C | 99% | 1007.5 hPa | 1.27 mm | - | - | - |
| 1778067934 | 7.22° C | 99% | 1007.3 hPa | 1.27 mm | - | - | - |
| 1778067332 | 7.22° C | 99% | 1007.3 hPa | 1.52 mm | - | - | - |
| 1778066729 | 7.22° C | 99% | 1007.4 hPa | 1.52 mm | - | - | - |
| 1778066127 | 7.22° C | 99% | 1007.3 hPa | 1.52 mm | - | - | - |
| 1778065524 | 7.22° C | 99% | 1007.2 hPa | 1.78 mm | - | - | - |
| 1778064922 | 7.22° C | 99% | 1007.2 hPa | 1.52 mm | - | - | - |
| 1778064319 | 7.22° C | 99% | 1007.2 hPa | 1.27 mm | - | - | - |
| 1778063717 | 7.22° C | 99% | 1007.1 hPa | 1.27 mm | - | - | - |
| 1778063174 | 7.22° C | 99% | 1007 hPa | 1.02 mm | - | - | - |
| 1778062572 | 7.22° C | 99% | 1006.9 hPa | 1.02 mm | - | - | - |
| 1778061969 | 7.22° C | 99% | 1006.8 hPa | 1.02 mm | - | - | - |
| 1778061367 | 7.22° C | 99% | 1006.7 hPa | 1.27 mm | - | - | - |
| 1778060764 | 7.22° C | 99% | 1006.7 hPa | 1.52 mm | - | - | - |
| 1778060162 | 7.22° C | 99% | 1006.7 hPa | 1.27 mm | - | - | - |
| 1778059559 | 7.22° C | 99% | 1006.6 hPa | 1.27 mm | - | - | - |
| 1778058957 | 7.78° C | 99% | 1006.5 hPa | 1.02 mm | - | - | - |
| 1778058354 | 7.78° C | 99% | 1006.4 hPa | 0.51 mm | - | - | - |
| 1778057752 | 7.78° C | 99% | 1006.5 hPa | 0.25 mm | - | - | - |
| 1778057149 | 8.33° C | 99% | 1006.3 hPa | 0 mm | - | - | - |
| 1778056547 | 8.33° C | 99% | 1006.4 hPa | 0.25 mm | - | - | - |
| 1778055944 | 7.78° C | 99% | 1006.2 hPa | 0.25 mm | - | - | - |
| 1778055342 | 7.78° C | 99% | 1006.3 hPa | 0.51 mm | - | - | - |
* Rain latest hour (hover to see other rain measurements)
** Current wind speed in m/s (hover to see current wind gust speed)